sat.trackr.live / text

‹ back to catalog

KSM1-A

NORAD 46912 · 2020-081H

PAYLOAD ACTIVE UNKNOWN

§ Identity

Operator
Country
LUXE
Launch date
2020-11-07
Launch site
SRILR
Launch vehicle
Mass (kg)
RCS (m²)

External: N2YO · Heavens-Above · Gunter

§ Orbital elements

Epoch: 2026-05-25T04:38:45.682656Z

Period
94.39 min
Inclination
36.8946°
Eccentricity
0.0002386
Mean motion
15.25556126 rev/d
Perigee alt
487.5 km
Apogee alt
490.8 km
Semi-major
6,867.3 km
B*
2.9728e-4
RAAN
203.0762°
Arg perigee
152.6599°
Mean anomaly
207.4276°
Rev number
30,566

§ Raw data

KSM1-A1 46912U 20081H   26145.19358429  .00007630  00000+0  29728-3 0  99982 46912  36.8946 203.0762 0002386 152.6599 207.4276 15.25556126305662

JSON: /api/v1/satellites/46912 · /tle

For live sub-satellite position, see the globe view (requires WebGL).

§ Visibility from observer

Set your observer location to see the next 7 days of passes ≥ 10°. The values pass through the URL so the page stays shareable.

No JS? Fill the form by hand. The geolocation button needs JavaScript.

§ Radio — SatNOGS DB

ModeDescriptionDownlinkUplink
FSK AX.100 Mode 5 Mode U 401.030 MHz

1 transmitter · refreshed weekly from db.satnogs.org